Temp
39 43 41 41 42 40 40 39 40 48 50 51 52 52 53 53 54 55 55 56 56 56 57 57 58 58 59
36 36 36 40 40 36 41 44 41 46 49 50 50 51 52 52 52 53 53 54 54 55 55 56 56 57 58
35 35 35 35 36 36 37 37 41 45 48 49 50 50 51 51 51 52 52 52 53 53 53 53 54 55 56
34 34 32 34 33 34 34 34 36 42 45 46 48 48 49 49 50 50 49 50 51 52 52 52 52 52 53
33 34 34 36 37 39 38 39 40 39 39 38 39 40 40 44 45 46 47 48 49 50 51 52 51 51 52
36 35 37 38 39 37 36 34 31 39 39 39 41 40 43 41 45 46 47 47 48 48 49 50 50 50 51
33 33 32 34 37 35 34 33 33 37 36 34 38 37 41 43 47 47 47 47 47 47 47 48 49 49 49
36 37 37 40 40 39 35 35 35 35 34 30 36 34 38 39 45 46 46 46 46 46 47 47 47 48 48
43 43 43 43 42 38 33 31 29 31 33 33 34 33 34 35 38 44 45 46 46 46 46 47 46 47 46
38 39 40 38 41 36 33 29 28 28 32 31 31 32 30 34 35 35 36 42 44 44 45 45 46 44 42
34 33 31 31 32 32 32 31 29 28 34 34 30 31 31 30 34 35 33 36 36 37 42 44 45 45 40
30 29 29 30 31 30 30 31 33 32 34 34 31 30 29 28 29 35 36 35 35 34 36 39 40 43 43
29 30 30 30 30 31 33 34 34 34 35 34 32 32 31 30 29 31 33 31 33 33 34 33 34 35 36
29 30 30 30 31 32 30 31 31 31 35 34 33 32 30 31 31 31 33 30 29 31 32 32 32 33 32
29 29 30 31 30 32 31 30 28 28 28 32 34 33 33 32 29 30 31 30 28 30 30 29 30 32 32
29 29 28 28 29 30 30 30 28 28 28 30 30 31 29 31 34 30 29 27 30 30 29 28 27 29 31
28 28 29 29 29 27 28 28 27 27 28 30 30 29 18 20 25 34 29 29 28 28 29 28 26 29 30
MSLP
1018.77 1018.17 1017.59 1017.11 1016.58 1016.41 1016.19 1015.95 1015.65 1015.15 1014.58 1014.16 1013.83 1013.46 1013.23 1013.05 1012.74 1012.49 1012.52 1012.53 1012.51 1012.51 1012.48 1012.44 1012.40 1012.31 1012.28
1018.60 1018.18 1017.72 1017.12 1016.48 1016.05 1015.53 1015.14 1014.85 1014.56 1014.14 1013.68 1013.35 1012.94 1012.52 1012.21 1012.02 1011.80 1011.59 1011.46 1011.44 1011.52 1011.60 1011.58 1011.46 1011.47 1011.46
1017.95 1017.62 1017.15 1016.75 1016.17 1015.69 1015.18 1014.68 1014.09 1013.64 1013.35 1013.03 1012.64 1012.27 1011.93 1011.67 1011.28 1010.93 1010.77 1010.70 1010.56 1010.44 1010.43 1010.63 1010.77 1010.62 1010.60
1017.68 1017.15 1016.85 1016.31 1015.97 1015.54 1014.86 1014.46 1013.89 1013.43 1012.88 1012.51 1012.03 1011.57 1011.27 1010.90 1010.66 1010.30 1010.15 1010.00 1009.82 1009.52 1009.35 1009.26 1009.53 1009.82 1009.84
1017.32 1016.78 1016.30 1015.80 1015.49 1014.96 1014.39 1013.86 1013.34 1013.11 1012.55 1012.24 1011.71 1011.15 1010.65 1010.25 1010.04 1009.86 1009.61 1009.28 1009.05 1008.71 1008.48 1008.17 1008.23 1008.54 1008.81
1016.74 1016.25 1015.64 1015.35 1014.94 1014.58 1013.99 1013.53 1012.57 1012.57 1011.85 1011.17 1010.94 1010.41 1009.81 1009.42 1009.05 1008.82 1008.53 1008.30 1008.14 1007.97 1007.71 1007.36 1007.17 1007.23 1007.50
1016.37 1016.00 1015.34 1015.02 1014.49 1013.91 1013.64 1013.18 1012.33 1011.62 1011.73 1010.74 1010.34 1009.83 1009.21 1008.67 1007.93 1007.44 1007.19 1007.04 1006.94 1006.88 1006.77 1006.56 1006.31 1006.29 1006.33
1015.56 1014.87 1014.43 1013.84 1013.41 1012.96 1012.72 1012.20 1011.65 1011.18 1011.23 1010.44 1009.55 1008.97 1008.54 1007.87 1007.28 1006.78 1006.36 1006.11 1005.93 1005.85 1005.62 1005.43 1005.29 1005.24 1005.43
1014.54 1014.06 1013.63 1013.09 1012.82 1012.57 1012.09 1011.68 1011.01 1010.20 1010.27 1010.00 1008.89 1008.42 1008.06 1007.12 1006.45 1005.86 1005.45 1005.06 1004.80 1004.76 1004.57 1004.30 1004.19 1004.16 1004.20
1013.86 1013.49 1013.15 1012.83 1012.49 1012.39 1012.05 1011.64 1011.20 1009.85 1009.46 1009.52 1008.63 1008.51 1006.95 1005.80 1005.32 1005.15 1004.92 1004.35 1004.17 1003.86 1003.61 1003.34 1003.06 1003.16 1003.21
1013.27 1012.87 1012.67 1012.40 1012.04 1011.80 1011.53 1011.37 1010.67 1009.50 1009.19 1008.88 1007.98 1007.65 1007.36 1005.78 1004.68 1004.59 1004.34 1003.63 1003.39 1003.00 1002.72 1002.40 1002.01 1001.97 1002.19
1013.10 1012.62 1012.19 1011.80 1011.37 1011.05 1010.75 1010.48 1010.04 1009.33 1008.58 1008.56 1007.57 1007.14 1006.28 1005.25 1004.34 1003.51 1003.25 1002.97 1002.80 1002.25 1002.00 1001.69 1001.57 1001.38 1001.27
1012.76 1012.17 1011.74 1011.21 1010.81 1010.42 1009.92 1009.37 1008.88 1008.35 1007.71 1007.29 1006.85 1006.06 1005.61 1004.68 1003.73 1003.19 1002.70 1002.27 1001.98 1001.72 1001.44 1001.30 1001.27 1000.99 1000.57
1012.44 1011.86 1011.33 1010.83 1010.27 1009.78 1009.28 1008.73 1008.12 1007.21 1006.50 1006.11 1005.79 1005.27 1004.43 1003.92 1003.31 1002.53 1002.28 1001.86 1001.58 1001.39 1001.28 1001.20 1001.26 1001.05 1000.71
1012.09 1011.39 1010.77 1010.14 1009.57 1009.04 1008.66 1008.07 1007.49 1006.77 1006.06 1005.28 1004.63 1004.20 1003.65 1003.22 1002.70 1002.18 1001.70 1001.46 1001.31 1001.34 1001.31 1001.42 1001.47 1001.46 1001.50
1011.48 1010.89 1010.26 1009.65 1009.02 1008.40 1008.04 1007.59 1007.01 1006.47 1005.81 1004.96 1004.20 1003.50 1003.12 1002.46 1002.19 1001.85 1001.54 1001.39 1001.34 1001.34 1001.38 1001.54 1001.64 1001.66 1001.71
1010.89 1010.27 1009.81 1009.12 1008.51 1008.11 1007.60 1007.13 1006.62 1006.06 1005.39 1004.68 1004.08 1003.50 1003.12 1002.86 1002.13 1001.77 1001.63 1001.42 1001.33 1001.45 1001.56 1001.61 1001.73 1001.78 1001.88
Wind_Speed
5 9 10 10 9 5 6 7 7 19 21 22 22 22 22 23 24 25 26 26 25 25 25 25 25 25 24
5 5 7 9 10 8 8 6 6 13 20 21 22 23 24 24 23 24 24 25 26 26 27 27 26 26 26
10 4 5 4 6 7 8 7 6 14 19 21 21 22 23 24 24 23 22 24 24 25 26 27 28 27 27
9 8 4 5 4 6 7 4 7 8 13 16 19 22 25 25 25 22 22 23 25 26 26 26 26 27 28
9 9 9 9 11 9 11 12 11 6 8 7 8 9 9 15 16 20 22 23 24 25 27 27 27 27 28
11 13 13 11 10 12 10 9 11 6 9 10 8 9 10 8 19 25 26 26 26 25 26 26 25 28 28
12 11 11 9 11 11 10 10 13 10 8 12 9 11 10 11 26 27 26 26 26 26 26 26 25 26 28
10 13 12 13 12 12 13 10 8 9 5 12 10 11 8 9 22 27 28 27 28 28 27 27 26 25 26
23 25 26 27 21 12 9 6 10 13 4 8 10 10 9 11 10 24 27 27 28 27 26 27 27 27 21
11 12 14 12 21 10 8 10 9 12 2 5 10 7 10 6 7 5 6 18 22 24 25 27 26 13 11
9 7 5 7 7 7 8 8 10 12 10 9 7 10 8 12 11 8 7 10 9 12 22 24 24 21 10
8 8 7 7 7 7 8 8 9 14 14 13 12 11 11 12 13 8 8 7 7 10 8 13 21 23 23
9 9 7 7 7 9 11 10 11 12 12 14 11 12 10 11 12 10 12 4 6 8 6 5 6 4 4
10 9 8 8 8 8 8 9 10 9 11 11 13 13 11 10 9 10 8 6 2 4 2 1 1 0 4
9 10 9 10 9 8 8 9 9 8 9 11 10 10 9 10 8 7 7 4 2 2 2 1 1 1 2
9 9 9 9 9 9 6 8 8 10 10 10 8 7 2 5 12 6 3 2 1 2 1 1 1 1 2
8 9 9 10 12 5 10 7 8 8 9 9 7 7 2 5 3 4 3 2 1 1 1 1 1 1 3
Wind_Direction
254 278 295 296 294 267 262 265 273 287 295 297 296 293 289 284 277 270 266 267 263 263 264 263 260 257 254
276 265 252 278 285 292 284 276 268 279 290 293 295 291 289 286 282 277 273 262 259 262 263 263 260 257 256
292 252 254 260 275 275 274 275 271 270 280 285 288 291 292 288 285 283 277 270 266 258 254 255 258 256 254
292 293 258 260 257 286 290 279 292 292 285 279 282 288 290 291 288 285 279 275 275 274 262 250 245 248 252
294 300 303 305 303 305 299 299 296 271 283 279 280 278 273 283 281 282 282 281 279 273 269 263 249 241 242
298 299 301 301 304 299 295 298 295 256 272 282 269 272 276 265 270 279 279 278 278 279 275 270 266 249 240
292 286 289 291 284 296 288 277 276 284 290 285 283 278 274 273 278 275 273 275 274 276 273 268 262 263 247
277 281 269 278 282 279 277 275 268 273 264 279 284 273 271 269 274 280 280 279 280 280 278 269 261 257 254
290 294 293 296 303 307 290 282 298 292 277 270 277 284 280 272 266 272 277 278 277 277 277 274 267 256 248
286 297 299 293 297 290 289 284 288 289 279 302 289 300 292 253 260 276 263 267 275 278 278 277 271 254 240
293 285 274 265 271 268 260 261 276 273 286 286 283 285 266 290 287 281 250 269 261 264 269 271 274 257 251
296 289 282 282 280 266 260 262 262 273 286 279 280 279 279 277 281 289 278 267 264 264 256 259 266 268 258
294 293 287 282 293 290 291 273 271 270 272 271 270 276 271 272 281 285 285 246 242 252 248 239 259 248 239
297 296 296 296 294 291 289 287 284 279 278 260 268 268 268 266 272 282 275 270 228 243 233 179 182 341 87
289 291 291 292 285 284 282 287 278 301 296 301 285 264 262 270 277 273 279 252 218 197 153 163 167 136 117
286 288 290 288 287 286 278 287 287 302 296 297 296 301 276 258 234 277 266 254 214 182 114 141 244 220 178
282 282 291 291 297 322 299 293 289 292 291 292 299 299 279 283 287 249 280 276 187 153 190 168 167 212 198